TimeCDT,TemperatureF,Dew PointF,Humidity,Sea Level PressureIn,VisibilityMPH,Wind Direction,Wind SpeedMPH,Gust SpeedMPH,PrecipitationIn,Events,Conditions,WindDirDegrees,DateUTC
12:08 AM,75.2,71.6,89,30.24,9.0,South,3.5,-,N/A,,Clear,170,2013-07-16 05:08:00
12:18 AM,75.2,71.6,89,30.24,10.0,SE,3.5,-,N/A,,Clear,140,2013-07-16 05:18:00
12:58 AM,72.5,71.2,96,30.24,10.0,SE,4.6,-,N/A,,Clear,140,2013-07-16 05:58:00
1:48 AM,69.8,69.8,100,30.25,9.0,Calm,Calm,-,N/A,,Clear,0,2013-07-16 06:48:00
1:58 AM,70.3,70.3,100,30.25,7.0,Calm,Calm,-,N/A,,Clear,0,2013-07-16 06:58:00
2:03 AM,69.8,69.8,100,30.25,4.0,Calm,Calm,-,N/A,,Clear,0,2013-07-16 07:03:00
2:08 AM,69.8,69.8,100,30.25,2.5,Calm,Calm,-,N/A,,Clear,0,2013-07-16 07:08:00
2:13 AM,69.8,69.8,100,30.25,2.0,ENE,1.2,-,N/A,,Clear,60,2013-07-16 07:13:00
2:23 AM,69.8,69.8,100,30.25,3.0,East,1.2,-,N/A,,Clear,80,2013-07-16 07:23:00
2:28 AM,69.8,69.8,100,30.25,8.0,East,2.3,-,N/A,,Clear,100,2013-07-16 07:28:00
2:48 AM,68.0,68.0,100,30.25,3.0,East,2.3,-,N/A,,Clear,100,2013-07-16 07:48:00
2:53 AM,68.0,68.0,100,30.25,1.0,Calm,Calm,-,N/A,,Clear,0,2013-07-16 07:53:00
2:58 AM,68.0,68.0,100,30.25,1.0,Calm,Calm,-,N/A,,Clear,0,2013-07-16 07:58:00
3:03 AM,68.0,68.0,100,30.25,3.0,East,1.2,-,N/A,,Clear,90,2013-07-16 08:03:00
3:08 AM,69.8,69.8,100,30.25,0.8,East,1.2,-,N/A,,Clear,100,2013-07-16 08:08:00
3:13 AM,69.8,69.8,100,30.25,0.5,NE,1.2,-,N/A,Fog,Fog,50,2013-07-16 08:13:00
3:38 AM,68.0,68.0,100,30.25,1.8,East,2.3,-,N/A,,Clear,100,2013-07-16 08:38:00
3:43 AM,68.0,68.0,100,30.25,9.0,ESE,2.3,-,N/A,,Partly Cloudy,110,2013-07-16 08:43:00
3:58 AM,67.3,67.3,100,30.25,9.0,Calm,Calm,-,N/A,,Partly Cloudy,0,2013-07-16 08:58:00
4:03 AM,68.0,68.0,100,30.25,1.8,East,1.2,-,N/A,,Partly Cloudy,90,2013-07-16 09:03:00
4:08 AM,68.0,68.0,100,30.25,0.5,East,2.3,-,N/A,Fog,Fog,100,2013-07-16 09:08:00
4:13 AM,68.0,68.0,100,30.25,0.2,East,1.2,-,N/A,Fog,Fog,100,2013-07-16 09:13:00
4:18 AM,69.8,69.8,100,30.25,0.5,Calm,Calm,-,N/A,Fog,Fog,0,2013-07-16 09:18:00
4:23 AM,69.8,69.8,100,30.25,0.8,Calm,Calm,-,N/A,,Scattered Clouds,0,2013-07-16 09:23:00
4:28 AM,69.8,69.8,100,30.25,2.5,Calm,Calm,-,N/A,,Scattered Clouds,0,2013-07-16 09:28:00
4:33 AM,68.0,68.0,100,30.25,8.0,East,1.2,-,N/A,,Partly Cloudy,100,2013-07-16 09:33:00
4:38 AM,68.0,68.0,100,30.25,4.0,ESE,1.2,-,N/A,,Partly Cloudy,120,2013-07-16 09:38:00
4:43 AM,68.0,68.0,100,30.25,1.2,ESE,1.2,-,N/A,,Partly Cloudy,110,2013-07-16 09:43:00
4:48 AM,68.0,68.0,100,30.25,0.8,ESE,2.3,-,N/A,,Partly Cloudy,110,2013-07-16 09:48:00
4:53 AM,66.2,66.2,100,30.25,1.0,East,1.2,-,N/A,,Clear,100,2013-07-16 09:53:00
4:58 AM,68.0,68.0,100,30.25,4.0,East,2.3,-,N/A,,Clear,100,2013-07-16 09:58:00
5:03 AM,68.0,68.0,100,30.25,0.8,East,2.3,-,N/A,,Clear,100,2013-07-16 10:03:00
5:08 AM,68.0,68.0,100,30.25,0.5,East,2.3,-,N/A,Fog,Fog,90,2013-07-16 10:08:00
5:13 AM,68.0,68.0,100,30.25,0.5,East,2.3,-,N/A,Fog,Fog,80,2013-07-16 10:13:00
5:18 AM,68.0,68.0,100,30.25,1.0,East,3.5,-,N/A,,Clear,100,2013-07-16 10:18:00
5:23 AM,69.8,69.8,100,30.25,2.0,SE,2.3,-,N/A,,Clear,130,2013-07-16 10:23:00
5:28 AM,69.8,69.8,100,30.25,4.0,East,1.2,-,N/A,,Clear,100,2013-07-16 10:28:00
5:33 AM,68.0,68.0,100,30.25,1.2,Calm,Calm,-,N/A,,Clear,0,2013-07-16 10:33:00
5:38 AM,68.0,68.0,100,30.26,0.2,Calm,Calm,-,N/A,Fog,Fog,0,2013-07-16 10:38:00
5:43 AM,68.0,68.0,100,30.26,0.2,East,1.2,-,N/A,Fog,Fog,100,2013-07-16 10:43:00
5:48 AM,68.0,68.0,100,30.26,0.2,Calm,Calm,-,N/A,Fog,Fog,0,2013-07-16 10:48:00
5:58 AM,68.0,68.0,100,30.25,0.2,Calm,Calm,-,N/A,Fog,Fog,0,2013-07-16 10:58:00
6:03 AM,68.0,68.0,100,30.26,0.5,SE,1.2,-,N/A,Fog,Fog,130,2013-07-16 11:03:00
6:08 AM,68.0,68.0,100,30.26,1.2,SE,2.3,-,N/A,,Clear,130,2013-07-16 11:08:00
6:13 AM,68.0,68.0,100,30.26,5.0,SE,3.5,-,N/A,,Clear,130,2013-07-16 11:13:00
6:58 AM,71.6,71.6,100,30.27,10.0,SE,1.2,-,N/A,,Clear,130,2013-07-16 11:58:00
7:58 AM,78.8,75.2,89,30.27,10.0,SSW,4.6,-,N/A,,Partly Cloudy,200,2013-07-16 12:58:00
8:58 AM,82.4,73.4,74,30.27,10.0,SW,8.1,-,N/A,,Partly Cloudy,230,2013-07-16 13:58:00
9:58 AM,85.1,74.8,71,30.27,10.0,WSW,9.2,-,N/A,,Scattered Clouds,250,2013-07-16 14:58:00
10:38 AM,86.0,73.4,66,30.27,10.0,SSW,9.2,-,N/A,,Light Drizzle,210,2013-07-16 15:38:00
10:47 AM,87.8,73.4,62,30.28,10.0,Variable,6.9,-,N/A,,Clear,0,2013-07-16 15:47:00
10:58 AM,87.8,73.4,62,30.26,10.0,SSW,8.1,-,N/A,,Scattered Clouds,210,2013-07-16 15:58:00
11:58 AM,86.0,75.2,70,30.26,10.0,WNW,5.8,-,N/A,,Scattered Clouds,290,2013-07-16 16:58:00
12:58 PM,86.0,75.2,70,30.25,10.0,West,4.6,-,N/A,,Mostly Cloudy,280,2013-07-16 17:58:00
1:18 PM,87.8,73.4,62,30.26,10.0,Variable,4.6,-,N/A,,Mostly Cloudy,0,2013-07-16 18:18:00
1:58 PM,89.6,73.4,59,30.24,10.0,West,8.1,-,N/A,,Scattered Clouds,260,2013-07-16 18:58:00
2:58 PM,91.4,71.6,52,30.24,10.0,SW,6.9,-,N/A,,Mostly Cloudy,220,2013-07-16 19:58:00
3:58 PM,91.4,73.4,55,30.23,10.0,SSW,10.4,-,N/A,,Mostly Cloudy,200,2013-07-16 20:58:00
4:58 PM,89.6,71.6,55,30.22,10.0,SSW,8.1,-,N/A,,Mostly Cloudy,210,2013-07-16 21:58:00
5:58 PM,89.6,71.6,55,30.22,10.0,SW,8.1,-,N/A,,Scattered Clouds,220,2013-07-16 22:58:00
6:58 PM,89.6,71.6,55,30.22,10.0,SW,8.1,-,N/A,,Partly Cloudy,220,2013-07-16 23:58:00
7:58 PM,86.0,71.6,62,30.22,10.0,SW,5.8,-,N/A,,Partly Cloudy,220,2013-07-17 00:58:00
8:58 PM,84.2,71.6,66,30.22,10.0,South,4.6,-,N/A,,Partly Cloudy,190,2013-07-17 01:58:00
9:58 PM,79.7,72.3,78,30.24,10.0,South,5.8,-,N/A,,Clear,170,2013-07-17 02:58:00
10:58 PM,80.2,72.1,76,30.25,10.0,SSW,5.8,-,N/A,,Clear,200,2013-07-17 03:58:00
11:58 PM,80.4,72.3,76,30.26,10.0,SW,4.6,-,N/A,,Clear,220,2013-07-17 04:58:00